Other Surface Observations
Issued by NWS

Home | Current Version | Previous Version | Text Only | Print | Product List | Glossary On
Versions: 1 2 3 4 5 6 7 8 9 10 11 12 13 14 15 16 17 18 19 20 21 22 23 24 25 26 27 28 29 30 31 32 33 34 35 36 37 38 39 40 41 42 43 44 45 46 47 48 49 50
182
SXUS52 KTAE 022018
OSOTAE
OSOTAE
North Florida/South Alabama/Southwest Georgia Weather Roundup
National Weather Service Tallahassee Florida
400 PM EDT MON MAY 02 2016

Note: "fair" indicates few or no clouds below 12,000 feet with no
significant weather and/or obstructions to visibility.

!FLZ017-115-028-034-025-022100
...North Florida...

CITY           SKY/WX    TMP DP  RH WIND       PRES   REMARKS
TALLAHASSEE    MOSUNNY   88  68  51 SE10      29.96F HX  91
APALACHICOLA   MOSUNNY   82  72  71 S10       29.99F
PERRY          MOSUNNY   86  69  57 SW13G18   30.00F
CROSS CITY       N/A     87  66  49 SW12G17   29.99F
JACKSONVILLE   PTSUNNY   88  62  41 S10       29.96F
$$

!FLZ112-006-005-002-011-022100
...Florida Panhandle...

CITY           SKY/WX    TMP DP  RH WIND       PRES   REMARKS
MARIANNA       CLOUDY    85  69  58 SW12      29.95F
BONIFAY        FAIR      83  67  58 SW10      29.96F
PANAMA CITY NW FAIR      84  70  62 S12G21    29.97F
TYNDALL AFB    NOT AVBL
TYND DRONE APT NOT AVBL
DE FUNIAK SPR  MOCLDY    81  68  65 S7G16     29.97F
EGLIN AFB      NOT AVBL
DESTIN         MOSUNNY   81  75  82 S8        29.97F
HURLBURT       NOT AVBL
CRESTVIEW      CLOUDY    82  69  64 S10G20    29.98F
PENSACOLA      CLOUDY    82  70  66 S14       29.96F
$$

!ALZ063-066-022100
...South Alabama...

CITY           SKY/WX    TMP DP  RH WIND       PRES   REMARKS
DOTHAN         MOSUNNY   87  64  46 SW13G22   29.99F
OZARK CAIRNS   NOT AVBL
FT RUCKER HELI PTSUNNY   85  65  51 S10       29.94F
RUCKER HELI 3  NOT AVBL
RUCKER HELI 2  NOT AVBL
FLORALA APT    MOSUNNY   81  66  60 SW10      29.97F
ANDALUSIA      CLOUDY    84  69  60 S5        29.95F
TROY           PTSUNNY   79  69  71 S7        29.97F
EUFALA         CLOUDY    83  68  60 W5        29.94F
MOBILE         CLOUDY    78  71  79 SE6       29.97S
$$

!GAZ120>161-022100
...Southwest and South Central Georgia...

CITY           SKY/WX    TMP DP  RH WIND       PRES   REMARKS
THOMASVILLE    PTSUNNY   82  70  65 SW10      29.99F
BAINBRIDGE     CLOUDY    77  70  78 S7        29.97F
MOODY AFB      CLOUDY    86  66  51 S10       29.97F THUNDER
VALDOSTA       CLOUDY    78  72  81 CALM      29.98F THUNDER
MOULTRIE       PTSUNNY   86  64  48 SW10G16   29.97F
BLAKELY        CLOUDY    88  70  55 CALM      29.96F HX  92
ALBANY         CLOUDY    85  68  56 N6        29.97F
TIFTON         FAIR      78  72  82 E5        29.95F
FITZGERALD     TSTM      72  68  89 CALM      29.99F
CORDELE        FAIR      81  74  80 SE3       29.97F
AMERICUS       MOCLDY    84  63  48 SW8G16    29.97F
HOMERVILLE     FAIR      86  68  54 S9        29.96F
$$

!GMZ750-755-770-775-022100
...Coastal and Buoy Obs...

STATION/POSITION TIME  TEMP    WIND        PRES    VSBY  WAVE
                       AIR SEA DIR/SP/G                  HT/PER
                 (UTC) (F)     (DEG/KT/KT) (MB)    (MI)  (FT/S)
KEATON BEACH     2000   78     200/ 11/ 13 1015.4F
CEDAR KEY        2000   80     260/  9/ 12 1015.9F
C TOWER          2000   76     160/  6/  7 1016.0F
APALACHICOLA BUO 1950   77 77  140/  6/  8 1015.4F         2/ 5
PANAMA CITY BUOY 1950   79 79  180/  8/ 10 1015.2F         3/ 6
MOBILE BUOY      2000   77 77  170/  6/  8 1014.4F
ORANGE BCH AL BU 1950   76 76  150/  6/  8 1014.2F         4/ 7
$$




USA.gov is the U.S. government's official web portal to all federal, state and local government web resources and services.